INTELSAT 33E DEB, 64409

Orbit data source: Space-Track

INTELSAT 33E DEB, 64409 is space debris in GEO originally from a launch on Wed, 24 Aug 2016 UTC launched from the French Guiana (FRGUI). Debris objects in space refer to the collection of defunct objects orbiting the Earth. Examples of debris include non-operational satellites, rocket bodies, and fragments generated from explosions, collisions, or faulty payload assembly.

Loading next visibility...
Identifier
64409, 2016-053AP
Orbit
GEO
Country
Flag of USUS / ITSO
Related business
Manufacturer
Boeing/ES
Mission
Spacecraft
Bus & Motor
Unknown
Mass
Unknown
Launch date (UTC)
2016-08-24 (10 years ago)
Launch vehicle
Unknown
Launch site
French Guiana (FRGUI)
Object type
Payload
Rocket body
Debris
Shape & HBR
Unknown shape, 1.1 m
Radar Cross Section
RCS unknown

Expand to show TLE details & history
Last TLE update: 15 hours ago

TLE from 15 hours ago
0 INTELSAT 33E DEB
1 64409U 16053AP  26120.93299746  .00000066  00000-0  00000-0 0  9990
2 64409   1.4044  79.1250 0052899  77.6350 282.9641  0.99465081  5394
Epoch: 2026-04-30T22:23Z
TLE epoch observation values (Epoch: 2026-04-30T22:23:30.980Z)
Latitude
-0.00001°
Longitude
-115.62037°
Altitude
35,965.756 km
Speed
3.07 km/s
True Right ascension
05h 16m 31s
True Declination
0° 00' 00"
Sunlit
Object was in daylight at epoch
Visualization orbit readout
Latitude
Unknown
Longitude
Unknown
Altitude
Unknown
Speed
Unknown
Apparent Right ascension
Unknown
Apparent Declination
Unknown
Sunlit
N/A
Visualization observer readout
Local Sidereal Time
20:32:37
Azimuth
Unknown
Elevation
Unknown
Doppler factor
Unknown
Orbital elements
Apogee altitude
36,239.592 km
Perigee altitude
35,791.077 km
Semi-major axis
42,393.471 km
Eccentricity
0.00529
Inclination
1.4044°
RAAN
79.125°
Arg. of periapsis
77.635°
True anomaly
282.37251°
Mean anomaly
282.9641°
Eccentric anomaly
282.66839°
Mean motion
0.24865 °/min
Orbital period
1,447.8 mins
BSTAR
0
Loading maneuver chart data...
Computing Atmospheric mass density...
Loading historical data...
Loading historical data...
Loading historical data...
Loading historical data...
Loading historical data...
Loading historical data...
Loading historical data...

Documentation

Showing up to 5 results
|